NKS2354 KFLL-KMCO

Flight info

Callsign NKS2354
Flight time N/A
Altitude 22000
Route FRSBE2 WAPOM MUNGI1
Aircraft A320/M-SDE3FGHIRWY/LB1

Departure

Time 2026-05-04 02:25
Airport Fort Lauderdale Hollywood International Airport (KFLL)

Arrival

Time N/A
Airport Orlando International Airport (KMCO)
Time Latitude Longitude Altitude Speed Heading
2026-05-04 01:34 26.07306 -80.14736 17 ft 0 kts 70°
2026-05-04 02:08 26.07301 -80.14751 16 ft 2 kts 70°
2026-05-04 02:08 26.07295 -80.14767 17 ft 2 kts 24°
2026-05-04 02:09 26.07288 -80.14771 16 ft 0 kts 355°
2026-05-04 02:12 26.07294 -80.14778 17 ft 4 kts 317°
2026-05-04 02:12 26.07324 -80.14812 18 ft 7 kts 309°
2026-05-04 02:13 26.07357 -80.14861 16 ft 9 kts 307°
2026-05-04 02:13 26.07385 -80.14925 16 ft 10 kts 301°
2026-05-04 02:13 26.07433 -80.14987 16 ft 11 kts 318°
2026-05-04 02:13 26.07484 -80.15058 16 ft 12 kts 284°
2026-05-04 02:14 26.07489 -80.15159 16 ft 14 kts 270°
2026-05-04 02:14 26.07490 -80.15272 15 ft 15 kts 271°
2026-05-04 02:14 26.07490 -80.15402 15 ft 19 kts 270°
2026-05-04 02:14 26.07490 -80.15552 16 ft 20 kts 270°
2026-05-04 02:15 26.07492 -80.15713 16 ft 22 kts 270°
2026-05-04 02:15 26.07492 -80.15886 16 ft 23 kts 270°
2026-05-04 02:15 26.07494 -80.16069 16 ft 24 kts 271°
2026-05-04 02:15 26.07495 -80.16211 16 ft 16 kts 271°
2026-05-04 02:16 26.07495 -80.16341 16 ft 12 kts 270°
2026-05-04 02:16 26.07495 -80.16351 16 ft 1 kts 270°
2026-05-04 02:16 26.07495 -80.16374 16 ft 7 kts 270°
2026-05-04 02:16 26.07496 -80.16447 16 ft 10 kts 271°
2026-05-04 02:17 26.07496 -80.16532 16 ft 12 kts 269°
2026-05-04 02:17 26.07496 -80.16591 16 ft 0 kts 272°
2026-05-04 02:17 26.07501 -80.16616 16 ft 5 kts 291°
2026-05-04 02:17 26.07501 -80.16617 16 ft 0 kts 294°
2026-05-04 02:21 26.07504 -80.16622 16 ft 0 kts 298°
2026-05-04 02:22 26.07504 -80.16623 16 ft 0 kts 299°
2026-05-04 02:23 26.07509 -80.16625 17 ft 0 kts 332°
2026-05-04 02:24 26.07540 -80.16637 18 ft 12 kts 347°
2026-05-04 02:24 26.07614 -80.16642 17 ft 13 kts 360°
2026-05-04 02:24 26.07698 -80.16576 18 ft 24 kts 84°
2026-05-04 02:24 26.07693 -80.16332 22 ft 52 kts 90°
2026-05-04 02:25 26.07691 -80.15628 16 ft 127 kts 90°
2026-05-04 02:25 26.07682 -80.14455 201 ft 166 kts 90°
2026-05-04 02:25 26.07621 -80.13093 712 ft 189 kts 91°
2026-05-04 02:25 26.07546 -80.11524 1178 ft 213 kts 91°
2026-05-04 02:26 26.07496 -80.09849 1872 ft 229 kts 91°
2026-05-04 02:26 26.07725 -80.07994 2329 ft 259 kts 65°
2026-05-04 02:26 26.08947 -80.06413 2795 ft 287 kts 30°
2026-05-04 02:26 26.10884 -80.05585 3255 ft 311 kts 14°
2026-05-04 02:27 26.13053 -80.04972 3692 ft 331 kts 12°
2026-05-04 02:27 26.15383 -80.04629 3962 ft 349 kts 354°
2026-05-04 02:27 26.17810 -80.05298 4018 ft 372 kts 339°
2026-05-04 02:27 26.20304 -80.06280 4415 ft 373 kts 338°
2026-05-04 02:28 26.22574 -80.07254 4957 ft 335 kts 329°
2026-05-04 02:28 26.24107 -80.08923 5573 ft 282 kts 296°
2026-05-04 02:28 26.24720 -80.10722 6688 ft 215 kts 282°
2026-05-04 02:28 26.25037 -80.12176 7168 ft 193 kts 282°
2026-05-04 02:29 26.25431 -80.13755 7468 ft 221 kts 284°
2026-05-04 02:29 26.25997 -80.15402 8135 ft 240 kts 296°
2026-05-04 02:29 26.26796 -80.16996 9206 ft 231 kts 294°
2026-05-04 02:29 26.27498 -80.18553 10308 ft 225 kts 292°
2026-05-04 02:30 26.28212 -80.20116 11055 ft 228 kts 294°
2026-05-04 02:30 26.28970 -80.21681 11849 ft 231 kts 295°
2026-05-04 02:30 26.29773 -80.23252 12567 ft 238 kts 296°
2026-05-04 02:30 26.30627 -80.24861 13234 ft 246 kts 296°
2026-05-04 02:31 26.31529 -80.26517 13906 ft 254 kts 297°
2026-05-04 02:31 26.32473 -80.28222 14509 ft 263 kts 297°
2026-05-04 02:31 26.33455 -80.29976 15127 ft 271 kts 297°
2026-05-04 02:31 26.34473 -80.31781 15758 ft 279 kts 297°
2026-05-04 02:32 26.35509 -80.33610 16388 ft 287 kts 296°
2026-05-04 02:32 26.36591 -80.35519 17039 ft 295 kts 296°
2026-05-04 02:32 26.37699 -80.37476 17709 ft 302 kts 296°
2026-05-04 02:32 26.38835 -80.39480 18379 ft 309 kts 296°
2026-05-04 02:33 26.39994 -80.41522 18969 ft 315 kts 296°
2026-05-04 02:33 26.41175 -80.43606 19569 ft 320 kts 296°
2026-05-04 02:33 26.42372 -80.45728 20182 ft 326 kts 295°
2026-05-04 02:33 26.43590 -80.47882 20762 ft 333 kts 295°
2026-05-04 02:34 26.44852 -80.50130 20961 ft 352 kts 295°
2026-05-04 02:34 26.46186 -80.52518 21011 ft 374 kts 296°
2026-05-04 02:34 26.47645 -80.55046 21022 ft 401 kts 301°
2026-05-04 02:34 26.49733 -80.57197 21010 ft 413 kts 320°
2026-05-04 02:35 26.52320 -80.58629 21020 ft 419 kts 332°
2026-05-04 02:35 26.55144 -80.59542 21017 ft 425 kts 339°
2026-05-04 02:35 26.58060 -80.60182 21020 ft 429 kts 342°
2026-05-04 02:35 26.61007 -80.60763 21015 ft 429 kts 341°
2026-05-04 02:36 26.63931 -80.61412 21018 ft 427 kts 340°
2026-05-04 02:36 26.66815 -80.62174 21016 ft 425 kts 337°
2026-05-04 02:36 26.69664 -80.63036 21018 ft 423 kts 336°
2026-05-04 02:36 26.72495 -80.63961 21016 ft 423 kts 335°
2026-05-04 02:37 26.75307 -80.64910 21021 ft 422 kts 335°
2026-05-04 02:37 26.78124 -80.65861 21019 ft 423 kts 335°
2026-05-04 02:37 26.80944 -80.66796 21020 ft 423 kts 335°
2026-05-04 02:37 26.83770 -80.67715 21024 ft 423 kts 336°
2026-05-04 02:38 26.86612 -80.68599 21059 ft 424 kts 336°
2026-05-04 02:38 26.89449 -80.69493 21015 ft 423 kts 335°
2026-05-04 02:38 26.92271 -80.70443 21024 ft 423 kts 334°
2026-05-04 02:38 26.95066 -80.71451 21024 ft 422 kts 333°
2026-05-04 02:39 26.97843 -80.72500 21028 ft 421 kts 333°
2026-05-04 02:39 27.00610 -80.73571 21029 ft 421 kts 333°
2026-05-04 02:39 27.03379 -80.74648 21030 ft 421 kts 333°
2026-05-04 02:39 27.06146 -80.75717 21032 ft 421 kts 333°
2026-05-04 02:40 27.08922 -80.76779 21035 ft 421 kts 333°
2026-05-04 02:40 27.11697 -80.77833 21035 ft 421 kts 333°
2026-05-04 02:40 27.14477 -80.78885 21036 ft 421 kts 333°
2026-05-04 02:40 27.17258 -80.79936 21064 ft 421 kts 333°
2026-05-04 02:41 27.20035 -80.80984 21034 ft 421 kts 333°